History for Miami, FL

Tuesday, November 20, 2012 — View Current Conditions

Jump to Data:

Date:
Airport Code:
Recently Viewed Airport Codes: KMIA
Daily Summary
  Actual Average Record
Temperature
Mean Temperature 65°F 74°F  
Max Temperature 70°F 81°F 87°F (1986)
Min Temperature 60°F 67°F 43°F (1914)
Degree Days
Heating Degree Days 0 0  
Month to date heating degree days 1 0  
Since 1 July heating degree days 1 0  
Cooling Degree Days 0 9  
Month to date cooling degree days 149 214  
Year to date cooling degree days 4388 4286  
Growing Degree Days 15 (Base 50)    
Moisture
Dew Point 60°F    
Average Humidity 85    
Maximum Humidity 97    
Minimum Humidity 73    
Precipitation
Precipitation T in 0.09 in 1.29 in (1992)
Month to date precipitation 0.24 2.41  
Year to date precipitation 86.17 59.00  
Snow
Snow 0.00 in in in ()
Month to date snowfall 0.0  
Since 1 July snowfall 0.0  
Since 1 September snowfall 0.0  
Snow Depth 0.00 in    
Sea Level Pressure
Sea Level Pressure 30.00 in    
Wind
Wind Speed 6 mph (NW)    
Max Wind Speed 12 mph    
Max Gust Speed 17 mph    
Visibility 8 miles    
Events      
T = Trace of Precipitation, MM = Missing Value Source: NWS Daily Summary

Show full METARS

(help) - Comma Delimited File

Hourly Observations

Time(EST) Temperature Dew Point Humidity Sea Level Pressure Visibility Wind Direction Wind Speed Gust Speed Precipitation Events Conditions
12:53 AM 62.1°F 57.0°F 84% 30.04 in 10.0 miles WNW 9.2 mph - N/A   Overcast
1:53 AM 61.0°F 55.9°F 83% 30.03 in 10.0 miles NNW 8.1 mph - N/A   Overcast
2:44 AM 60.8°F 57.2°F 88% 30.02 in 9.0 miles NNW 6.9 mph - N/A   Overcast
2:53 AM 61.0°F 57.9°F 90% 30.01 in 7.0 miles NNW 4.6 mph - N/A   Overcast
3:53 AM 61.0°F 57.9°F 90% 30.01 in 10.0 miles Variable 4.6 mph - N/A   Overcast
4:53 AM 61.0°F 57.9°F 90% 30.01 in 10.0 miles Variable 4.6 mph - N/A   Overcast
5:53 AM 61.0°F 57.9°F 90% 30.01 in 10.0 miles NW 6.9 mph - N/A   Overcast
6:53 AM 60.1°F 57.9°F 93% 30.02 in 3.0 miles NW 8.1 mph - 0.00 in   Overcast
7:15 AM 60.8°F 59.0°F 94% 30.03 in 2.5 miles NW 5.8 mph - N/A   Overcast
7:53 AM 60.1°F 59.0°F 96% 30.04 in 2.5 miles Variable 6.9 mph - N/A   Overcast
8:34 AM 60.8°F 59.0°F 94% 30.04 in 4.0 miles Variable 5.8 mph - N/A   Overcast
8:53 AM 61.0°F 59.0°F 93% 30.04 in 4.0 miles NW 8.1 mph - N/A   Overcast
9:53 AM 62.1°F 59.0°F 90% 30.06 in 5.0 miles Variable 6.9 mph - N/A   Overcast
10:53 AM 63.0°F 59.0°F 87% 30.04 in 5.0 miles Variable 5.8 mph 16.1 mph N/A   Overcast
11:53 AM 63.0°F 60.1°F 90% 30.03 in 6.0 miles NW 8.1 mph - N/A   Overcast
12:53 PM 64.9°F 60.1°F 84% 30.00 in 6.0 miles NNW 8.1 mph - N/A   Haze
1:32 PM 66.2°F 60.8°F 83% 29.98 in 6.0 miles NW 5.8 mph - N/A   Haze
1:53 PM 66.0°F 61.0°F 84% 29.97 in 7.0 miles Variable 6.9 mph - N/A   Overcast
2:53 PM 66.9°F 61.0°F 81% 29.96 in 7.0 miles NNW 5.8 mph - N/A   Overcast
3:49 PM 69.8°F 60.8°F 73% 29.95 in 7.0 miles NNW 6.9 mph - N/A   Overcast
3:53 PM 69.1°F 61.0°F 75% 29.95 in 7.0 miles NW 4.6 mph - N/A   Overcast
4:29 PM 69.8°F 62.6°F 78% 29.95 in 10.0 miles WNW 8.1 mph - N/A   Scattered Clouds
4:53 PM 70.0°F 62.1°F 76% 29.96 in 10.0 miles WNW 5.8 mph - N/A   Scattered Clouds
5:53 PM 70.0°F 62.1°F 76% 29.95 in 7.0 miles WNW 3.5 mph - N/A   Mostly Cloudy
6:53 PM 69.1°F 62.1°F 78% 29.96 in 10.0 miles West 3.5 mph - N/A   Scattered Clouds
7:53 PM 68.0°F 62.1°F 81% 29.98 in 10.0 miles WNW 3.5 mph - N/A   Scattered Clouds
8:53 PM 69.1°F 62.1°F 78% 29.99 in 10.0 miles NW 3.5 mph - N/A   Mostly Cloudy
9:53 PM 69.1°F 61.0°F 75% 30.00 in 10.0 miles NW 4.6 mph - N/A   Overcast
10:53 PM 68.0°F 60.1°F 76% 29.99 in 10.0 miles Variable 6.9 mph - N/A   Mostly Cloudy
11:53 PM 66.9°F 60.1°F 79% 29.99 in 10.0 miles NNW 6.9 mph - N/A   Mostly Cloudy